Location: Bucquoy
(50.1391°N, 2.7097°E)
Time: 03:45:14
(UTC+00:00)

Cosmos 1802 Rocket - Pass Details

Date: 06 May 2021
Orbit: 954 x 1012 km, 82.9° (Epoch: 22 June)

Event Time Altitude Azimuth Distance (km) Brightness Sun altitude
Rises 01:58:23 0° 351° (N) 3,671 7.8 -17.2°
Reaches altitude 10° 02:00:56 10° 354° (N) 2,713 7.1 -17.0°
Maximum altitude 02:07:07 69° 78° (ENE) 1,023 4.2 -16.4°
Drops below altitude 10° 02:13:13 10° 162° (SSE) 2,677 6.0 -15.8°
Enters shadow 02:14:33 - 163° (SSE) 3,178 6.3 -15.7°
